Back to catalog

ASIASAT 8

AliveCommunicationsGEO
NORAD 40107·PAYLOAD·🇸🇭 SH

Launched Aug 5, 2014 from Cape Canaveral Space Force Station

Loading…

TLE

FreshSource: Space-Track

Epoch: Sep 14, 2026, 21:08 UTC

1 40107U 14046A   26257.88109389  .00000000  00000-0  00000-0 0  9995
2 40107   0.0178 169.4269 0001663 350.3090 256.5902  1.00272337103045

Track ASIASAT 8 in real time with AllMySat

Download on the App Store